Location: *
(49.0044°N, 9.5056°E)
Time: 00:40:08
(UTC+00:00)

Nadezhda 1 Rocket - Pass Details

Date: 22 September 2019
Orbit: 942 x 1005 km, 83.0° (Epoch: 18 October)

Event Time Altitude Azimuth Distance (km) Brightness Sun altitude
Rises 17:38:18 0° 171° (S) 3,594 6.8 -3.7°
Reaches altitude 10° 17:40:49 10° 166° (SSE) 2,653 6.1 -4.1°
Maximum altitude 17:46:40 53° 92° (E) 1,149 4.1 -5.1°
Drops below altitude 10° 17:52:35 10° 17° (NNE) 2,686 6.2 -6.0°
Sets 17:55:08 0° 13° (NNE) 3,642 6.9 -6.4°
